Temp
9 10 10 10 11 11 12 12 12 13 13 13 13 14 14 14 14 14 14 14 14 14 14 14 14 15 15 15 15 15 15 14 15 15 15 15 15 15 15 15 14 14 14 14 14 14 14 15 15 15 15 15 16 16 16 16 16 17 16 16 16 16 15 15 15 15 15 15 15
9 10 10 10 11 11 12 12 12 12 13 13 13 13 13 14 14 14 14 14 14 14 14 14 14 14 15 15 15 15 15 15 15 15 15 15 15 15 15 15 15 15 15 15 14 14 14 15 15 15 15 15 15 16 16 16 16 16 16 16 16 15 15 15 15 15 15 15 15
9 10 10 10 11 11 11 12 12 12 13 13 13 13 13 13 14 14 14 14 14 14 14 14 14 14 14 15 15 15 15 15 15 15 15 15 15 15 15 15 15 15 15 15 14 14 14 14 15 15 15 15 15 15 16 16 16 16 16 16 16 15 15 15 15 15 15 15 15
9 10 10 10 11 11 11 11 12 12 12 13 13 13 13 13 13 13 14 14 14 14 14 14 14 14 14 14 14 15 15 15 15 15 15 15 15 15 15 15 15 15 15 15 15 14 14 14 14 15 15 15 15 15 15 16 16 16 16 16 16 15 15 15 15 15 15 15 15
10 10 10 10 11 11 11 11 12 12 12 13 13 13 13 13 13 13 13 13 14 14 14 14 14 14 14 14 14 14 14 14 15 15 15 15 15 15 15 15 15 15 15 15 15 14 14 14 14 14 15 15 15 15 15 15 15 16 16 16 16 15 15 15 15 15 15 15 15
10 10 10 10 10 11 11 11 11 12 12 12 12 13 13 13 13 13 13 13 13 14 14 14 14 14 14 14 14 14 14 14 14 14 15 15 15 15 15 15 15 15 15 15 15 15 14 14 14 14 14 14 15 15 15 15 15 15 16 16 16 15 15 15 15 15 15 15 15
10 10 10 11 11 11 11 11 11 11 11 12 12 12 12 13 13 13 13 13 14 14 14 14 14 14 14 14 14 14 14 14 14 14 14 14 14 14 15 15 15 15 14 14 14 14 14 14 14 14 14 14 15 15 15 15 15 15 15 15 16 15 15 15 15 15 15 15 15
10 10 10 11 11 11 11 11 11 11 11 11 12 12 12 12 12 13 13 13 13 13 13 13 13 14 14 14 14 14 14 14 14 14 14 14 14 14 14 14 15 14 14 14 14 14 14 14 13 13 13 14 14 15 15 15 15 15 15 15 15 15 15 15 15 15 15 15 15
8 8 9 9 10 10 10 10 10 11 11 11 11 11 12 12 12 12 12 13 13 13 13 13 13 13 13 13 13 13 13 13 13 14 14 14 14 14 14 14 14 14 14 14 14 14 14 14 13 12 12 13 13 14 14 15 15 15 15 15 15 15 15 15 15 15 15 15 15
6 6 6 7 7 8 9 9 10 10 11 11 11 11 11 12 12 12 12 12 12 12 13 13 13 13 13 13 13 13 13 13 13 13 13 13 13 13 13 14 14 14 14 14 14 14 14 14 13 12 12 12 13 13 13 13 14 14 15 15 15 15 15 15 15 15 15 15 15
6 6 6 6 6 6 7 7 8 9 9 10 10 11 11 11 11 12 12 12 12 12 12 12 12 12 12 12 12 12 12 12 12 12 12 12 12 12 12 13 13 13 13 13 14 14 14 14 13 13 13 12 12 12 12 12 13 13 14 14 15 15 15 15 15 15 15 15 15
6 6 6 6 6 6 6 6 6 7 7 8 8 9 9 10 10 11 11 11 11 12 12 12 12 12 12 12 12 12 12 12 12 12 12 12 12 12 12 12 12 12 12 13 13 14 14 14 14 14 13 13 12 12 12 12 12 12 13 14 14 14 14 14 15 15 15 15 14
5 5 5 5 6 6 6 6 6 6 6 6 7 7 7 8 8 9 10 10 11 11 11 11 11 11 12 12 12 11 11 11 12 12 11 11 11 11 11 11 11 11 11 12 13 13 14 14 14 14 14 14 13 13 12 12 12 12 12 13 14 14 14 14 15 15 15 14 14
4 5 5 5 5 5 5 5 6 6 6 6 6 6 6 6 7 7 8 9 10 10 11 11 11 11 11 11 11 11 11 11 11 11 11 11 11 11 11 11 11 11 11 11 12 13 13 13 14 14 14 14 14 14 13 13 13 13 13 13 14 14 14 14 15 15 15 14 14
4 4 4 5 5 5 5 5 5 6 6 6 6 6 6 6 6 6 7 7 8 9 10 11 11 11 11 11 11 11 11 11 11 11 11 11 11 11 11 11 11 11 11 11 11 12 12 13 13 13 13 14 14 14 14 14 14 14 14 14 14 14 14 14 15 15 15 14 14
4 4 4 4 4 5 5 5 5 5 5 5 6 6 6 6 6 6 6 7 7 8 9 10 10 11 11 11 11 11 11 11 11 11 11 11 11 11 11 11 11 11 11 11 11 12 12 12 12 13 13 13 13 13 14 14 14 14 14 14 14 14 14 14 14 14 15 15 14
3 3 4 4 4 4 4 4 5 5 5 5 5 5 5 6 6 6 6 6 7 7 8 9 10 10 10 11 11 11 11 11 11 11 11 11 11 11 11 11 11 11 11 11 11 11 12 12 12 12 12 13 13 13 13 13 14 14 14 14 14 14 14 13 13 14 14 15 15
3 3 3 3 4 4 4 4 4 5 5 5 5 5 5 5 5 5 6 6 6 7 7 8 8 9 9 10 10 10 10 10 10 10 10 11 11 11 11 11 11 11 11 11 11 11 12 12 12 12 12 12 12 13 13 13 13 14 14 14 14 14 14 13 13 13 14 14 15
2 2 3 3 3 3 4 4 4 4 4 4 5 5 5 5 5 5 5 6 6 6 7 7 7 7 8 8 8 8 8 9 9 10 10 10 11 11 11 11 11 11 11 11 11 11 12 12 12 12 12 12 12 12 13 13 13 13 14 14 14 14 14 14 14 14 14 14 14
2 2 2 3 3 3 3 4 4 4 4 4 4 4 5 5 5 5 5 5 6 6 6 6 6 6 6 7 7 7 7 7 7 8 8 9 10 10 11 11 11 11 11 11 11 11 12 12 12 12 12 12 12 12 12 13 13 13 14 14 14 14 14 14 14 14 14 14 14
1 1 2 2 3 3 3 3 4 4 4 4 4 4 4 4 5 5 5 5 5 5 6 6 6 6 6 6 6 6 6 6 6 6 6 7 7 8 9 10 11 11 11 11 11 11 12 12 12 12 12 12 12 12 12 12 13 13 14 14 14 14 14 14 14 14 14 14 14
1 1 1 2 2 3 3 3 3 3 4 4 4 4 4 4 4 4 5 5 5 5 5 5 6 6 5 6 6 6 6 6 6 6 6 6 6 6 7 8 10 11 11 11 11 11 12 12 12 12 12 12 12 12 12 12 12 13 13 14 14 13 13 14 14 14 14 15 14
0 1 1 1 2 2 3 3 3 3 3 4 4 4 4 4 4 4 4 4 4 5 5 5 5 5 5 5 5 5 5 5 6 6 6 6 6 6 6 7 8 9 10 10 11 11 11 11 11 12 12 12 12 12 12 12 12 13 13 14 14 13 13 13 13 13 14 14 15
-0 0 0 1 1 2 2 2 2 3 3 3 4 4 4 4 4 4 4 4 4 4 5 5 5 5 5 5 5 5 5 5 5 5 5 5 5 5 6 6 6 6 6 7 7 7 7 8 8 9 10 11 12 12 12 13 13 13 14 14 14 13 13 13 13 13 14 14 15
-0 -0 0 0 1 1 2 2 2 2 3 3 3 3 4 4 4 4 4 4 4 4 4 4 4 5 5 5 5 5 5 5 5 5 5 5 5 5 5 5 5 5 5 5 5 5 6 6 6 6 7 9 10 12 12 12 13 13 14 14 14 14 14 14 14 14 14 14 14
-0 -0 -0 0 1 1 1 1 2 2 2 2 3 3 3 4 4 4 4 4 4 4 4 4 4 4 4 4 4 4 4 4 5 5 5 5 5 5 5 5 5 5 5 5 6 6 6 6 6 6 6 7 9 10 12 12 13 13 14 14 14 14 14 14 14 14 14 14 14
-1 -0 -0 -0 0 1 1 1 1 1 2 2 2 3 3 3 3 4 4 4 4 4 4 4 4 4 4 4 4 4 4 4 4 4 4 5 5 5 5 5 5 5 5 5 5 6 6 6 6 6 6 7 8 9 11 12 13 13 13 13 14 14 14 14 14 14 14 14 14
-1 -1 -0 -0 0 0 0 1 1 1 1 2 2 2 2 3 3 3 4 4 4 4 4 4 4 4 4 4 4 4 4 4 4 4 4 4 4 5 5 5 5 5 5 5 5 5 5 5 5 6 6 6 7 8 10 12 13 13 13 13 13 14 14 14 14 14 14 14 14
-1 -1 -0 -0 -0 0 0 0 0 1 1 1 2 2 2 2 3 3 3 3 4 4 4 4 4 4 4 4 4 4 4 4 4 4 4 4 4 4 4 4 4 4 5 5 5 5 5 5 5 5 6 6 7 8 9 11 12 13 13 13 14 14 14 14 14 14 14 14 14
-1 -1 -1 -0 -0 -0 0 0 0 0 0 1 1 1 2 2 2 3 3 3 3 4 4 4 4 4 4 4 4 4 4 4 4 4 4 4 4 4 4 4 4 4 4 5 5 5 5 5 5 5 5 6 6 7 8 9 11 13 13 13 14 14 14 14 14 14 14 14 14
-1 -1 -1 -1 -0 -0 -0 -0 -0 0 0 1 1 1 1 2 2 3 3 3 3 3 4 4 4 4 4 4 4 4 4 4 4 4 4 4 4 4 4 4 4 4 4 4 5 5 5 5 5 5 5 5 5 6 6 7 8 10 12 13 14 14 14 14 14 14 14 14 14
-1 -1 -1 -1 -1 -1 -0 -0 -0 -0 0 0 1 1 1 1 2 2 2 3 3 3 4 4 4 4 4 4 4 4 4 4 4 4 4 4 3 3 4 4 4 4 4 4 4 5 5 5 5 5 5 5 5 5 5 6 6 7 9 11 12 13 14 14 14 14 14 14 14
-2 -2 -1 -1 -1 -1 -1 -1 -1 -1 -0 0 0 1 1 1 2 2 2 2 2 3 3 4 4 4 4 4 4 4 4 4 4 4 4 3 3 3 3 3 3 4 4 4 4 4 5 5 5 5 5 5 5 5 5 5 6 6 6 7 9 11 13 14 14 14 14 14 14
-2 -2 -2 -1 -1 -1 -1 -1 -1 -1 -0 -0 0 1 1 1 1 2 2 2 2 3 3 3 4 4 4 4 4 4 4 4 4 4 4 3 3 3 3 3 3 3 3 4 4 4 4 4 5 5 5 4 4 4 4 5 5 5 6 6 6 7 9 12 13 14 14 14 14
-2 -2 -2 -2 -1 -1 -1 -1 -1 -1 -1 -0 0 1 1 1 1 2 2 2 2 2 3 3 4 4 4 4 4 4 4 4 4 4 4 4 3 3 3 3 3 3 3 3 4 4 4 4 4 4 4 4 4 4 4 4 5 5 5 5 5 6 6 8 10 12 14 14 14
-2 -2 -2 -2 -1 -1 -1 -1 -1 -1 -1 -0 0 0 1 1 1 1 2 2 2 2 2 3 3 3 4 3 3 4 4 4 4 4 4 4 3 3 3 3 3 3 3 3 3 4 4 4 4 4 4 4 4 4 4 4 4 4 5 5 5 5 5 6 7 8 11 13 14
-2 -2 -2 -1 -1 -1 -1 -1 -1 -1 -1 -1 -0 0 1 1 1 1 1 1 2 2 2 3 3 3 3 3 3 3 3 4 4 4 4 4 4 3 3 3 3 3 3 3 3 3 4 4 4 4 4 4 4 4 4 4 4 4 4 4 4 5 5 5 5 6 7 9 11
-1 -1 -1 -1 -1 -1 -1 -1 -1 -1 -1 -1 -0 0 0 1 1 1 1 1 1 2 2 2 2 3 3 3 3 3 3 3 3 3 3 3 3 3 3 3 3 3 3 3 3 3 3 4 4 4 4 4 4 4 4 4 4 4 4 4 4 4 4 5 5 5 6 6 7
-1 -1 -1 -1 -1 -1 -1 -1 -1 -1 -1 -1 -0 0 0 0 1 1 1 1 1 1 2 2 2 2 2 2 3 3 3 3 3 3 3 3 3 3 3 3 3 3 3 3 3 3 3 4 4 4 4 4 4 4 4 4 4 4 4 4 4 4 4 4 4 5 5 6 6
-1 -1 -1 -1 -1 -1 -1 -1 -1 -1 -1 -1 -0 0 0 0 1 1 1 1 1 1 1 2 2 2 2 2 2 2 2 2 2 3 3 3 3 3 3 3 3 3 3 3 3 3 3 3 4 4 4 4 4 4 4 4 4 4 4 4 4 4 4 4 4 4 5 5 6
-1 -1 -1 -1 -1 -1 -1 -1 -1 -2 -1 -1 -0 -0 0 0 1 1 1 1 1 1 1 1 1 1 2 2 2 2 2 2 2 2 2 2 3 3 3 3 3 3 3 3 3 3 3 3 3 3 4 4 4 4 4 4 4 4 4 4 4 4 4 4 4 4 4 5 5
Height
711 711 711 711 711 710 710 709 709 709 709 708 708 708 707 707 707 707 707 707 707 706 706 706 706 706 706 706 706 707 707 707 707 707 707 707 707 707 707 707 708 708 709 709 710 711 711 711 712 711 711 710 710 709 709 709 709 709 709 709 709 709 709 710 711 712 713 714 715
711 711 711 711 710 710 709 709 708 708 708 707 707 707 706 706 706 705 705 705 705 704 704 704 704 704 704 704 704 705 705 705 705 705 705 705 705 705 705 705 705 705 706 706 707 708 708 709 709 709 708 708 707 707 706 706 707 707 707 706 706 706 707 707 707 708 710 711 712
710 710 710 710 710 709 709 708 708 707 707 706 706 705 705 704 704 704 703 703 703 703 702 702 701 701 701 702 702 702 703 703 703 703 703 703 703 703 703 703 703 703 703 704 704 704 705 706 706 706 705 705 704 704 704 704 704 704 704 704 704 704 704 704 704 705 707 708 709
709 709 709 709 709 709 708 708 707 706 706 705 705 704 704 703 703 702 702 701 701 701 700 699 699 699 699 699 699 700 700 700 701 701 700 700 700 700 700 700 700 700 700 701 701 702 702 703 703 703 702 702 701 701 701 701 701 702 701 701 701 701 700 700 701 702 704 704 706
708 708 708 708 708 708 707 707 706 706 705 705 704 704 703 702 702 701 701 700 699 699 698 698 697 697 697 697 697 697 698 698 698 698 698 698 698 698 698 698 698 698 698 698 698 699 699 699 700 699 699 699 698 698 698 698 699 699 698 698 698 698 698 697 698 699 700 701 703
707 707 707 707 707 707 706 706 706 705 705 704 704 703 702 701 700 700 699 699 698 697 696 696 695 695 695 695 695 695 695 695 695 695 695 695 695 695 695 695 694 695 695 695 695 695 696 696 696 695 695 695 695 694 695 696 696 696 695 695 695 695 695 694 694 695 696 697 699
706 706 706 706 706 706 706 705 705 704 704 703 703 702 701 700 699 699 698 697 696 696 695 694 694 694 694 693 693 693 693 693 693 693 693 693 692 692 692 692 692 692 692 692 692 693 693 693 693 692 692 692 691 691 691 692 693 693 692 692 692 692 692 692 692 692 693 694 695
707 707 706 706 705 705 704 704 704 704 703 702 701 701 700 699 699 698 697 696 695 694 694 693 693 692 692 692 691 691 690 690 690 690 690 690 689 689 689 689 689 689 689 689 689 689 689 689 689 689 689 689 688 688 688 688 689 689 689 688 689 689 689 689 689 689 689 690 691
709 708 707 706 705 705 704 703 702 702 701 701 700 699 699 698 698 697 696 695 694 693 692 692 691 691 690 690 689 689 688 688 688 687 687 687 687 686 686 686 686 686 686 686 686 686 686 686 686 686 686 686 686 685 684 685 685 684 684 685 685 686 686 686 687 687 687 687 688
710 709 708 707 706 705 704 702 701 701 700 699 698 698 697 696 696 695 694 693 692 691 690 689 689 689 688 687 687 686 686 686 685 685 684 684 684 684 683 683 684 684 684 684 683 683 683 683 682 683 683 683 683 682 682 682 681 681 680 681 681 682 683 683 684 684 684 685 685
713 711 709 708 706 705 704 702 701 700 700 699 698 697 696 694 694 693 692 691 690 689 688 687 686 686 685 685 684 684 684 684 683 683 682 682 681 681 681 681 681 681 681 681 681 680 679 679 679 679 679 679 680 679 679 679 678 677 677 677 677 678 679 679 680 681 682 683 683
714 713 711 709 708 706 704 703 702 701 700 699 698 696 695 694 692 691 690 689 688 686 685 684 684 683 683 682 682 681 681 681 681 680 680 679 679 679 678 678 678 679 679 678 678 677 676 676 676 676 676 676 676 676 676 675 674 673 673 672 673 674 675 675 675 677 678 680 680
716 714 712 711 709 707 705 704 703 701 700 699 697 696 694 693 691 690 689 687 685 684 682 681 681 680 680 679 679 679 679 678 678 678 677 677 676 676 675 675 675 675 675 675 674 674 673 673 673 672 672 673 673 673 673 672 671 670 669 668 669 670 670 671 671 673 675 677 677
716 714 713 711 709 708 706 705 704 702 701 699 698 696 694 693 691 689 687 685 684 682 680 679 678 677 677 676 676 676 675 675 674 674 674 674 673 673 672 671 671 671 671 671 671 670 670 669 669 669 669 669 669 669 669 669 669 667 666 666 666 667 668 668 669 670 672 673 673
717 715 714 712 710 709 707 706 704 703 702 700 699 697 695 693 691 689 687 684 682 680 678 677 675 674 674 674 673 672 672 672 671 671 670 670 670 669 669 667 667 666 667 667 667 666 666 666 665 665 665 665 665 665 666 666 666 665 664 664 664 665 666 666 666 667 669 669 669
718 716 714 713 711 710 709 707 706 704 703 701 699 697 695 693 691 689 687 684 682 679 677 675 674 672 671 671 670 669 669 668 668 667 667 666 666 665 664 663 662 662 662 663 663 662 662 662 662 662 662 662 662 662 662 662 662 662 661 661 661 662 663 663 664 663 664 665 665
719 717 715 714 713 711 710 709 707 706 704 702 700 698 695 693 691 689 687 684 682 679 676 674 672 670 669 669 668 668 667 666 665 664 664 663 662 661 659 659 658 657 657 658 658 658 658 657 658 658 658 658 658 658 658 658 658 657 657 657 657 658 659 659 659 658 658 659 661
720 719 717 715 714 713 711 710 708 707 705 703 700 698 696 694 691 689 687 684 682 680 677 674 671 669 668 668 667 666 666 664 663 662 660 659 658 657 656 655 654 653 653 653 653 653 653 653 653 654 654 653 653 653 653 653 653 653 652 653 653 654 654 655 655 654 653 654 656
722 720 719 717 716 714 713 711 709 708 706 704 701 699 696 694 692 689 687 685 683 681 679 676 673 670 668 667 666 665 664 663 661 660 658 656 655 654 652 651 650 649 649 649 649 649 649 649 649 648 648 648 648 647 647 648 647 647 647 648 648 649 649 650 651 650 650 651 652
724 722 721 719 718 716 714 713 711 709 707 705 702 700 698 695 693 691 689 687 685 683 681 678 674 671 668 666 665 664 663 661 660 658 656 655 653 651 649 648 647 646 645 645 644 644 644 644 644 643 643 642 642 641 641 642 642 642 642 643 643 644 644 645 646 647 647 648 649
726 724 723 721 719 718 716 714 712 710 708 706 704 701 699 697 694 692 690 689 686 684 682 679 676 673 669 667 665 663 662 661 659 658 656 654 652 650 647 645 643 642 642 641 640 639 639 639 639 638 637 637 636 635 636 636 636 636 637 638 638 639 639 640 641 642 643 643 644
728 726 724 723 721 719 717 715 713 711 709 706 704 702 700 698 696 694 692 689 687 685 683 680 678 675 671 668 666 664 662 660 659 658 656 654 651 649 646 644 641 639 638 638 637 636 635 635 634 634 633 631 630 630 630 630 630 630 631 632 633 634 634 635 635 636 637 638 639
730 728 726 724 722 720 718 716 714 711 709 707 705 703 700 699 696 694 692 690 688 686 684 682 679 676 673 670 667 664 661 659 658 657 655 654 652 649 647 644 641 639 638 638 637 637 636 635 633 631 629 627 625 625 625 625 625 625 625 626 627 629 629 630 630 630 631 633 634
731 729 727 725 723 721 719 716 714 712 709 708 705 703 701 699 697 695 693 690 689 686 684 682 680 677 674 671 668 665 662 660 658 657 655 654 653 651 649 647 644 641 640 639 639 639 637 635 632 629 625 623 620 619 619 619 619 619 619 620 622 623 624 625 626 626 626 627 629
733 730 728 726 724 722 720 718 715 713 711 709 706 704 702 699 697 695 693 691 689 686 684 682 680 678 675 672 669 666 664 661 659 658 656 655 654 652 650 648 646 643 640 638 636 634 632 630 628 626 623 619 617 615 614 614 614 614 614 615 616 618 619 620 621 622 623 624 625
734 731 729 728 725 723 721 719 717 714 712 710 707 705 702 700 698 696 693 691 689 687 685 682 680 678 675 673 670 667 664 663 661 659 658 656 655 653 651 649 646 643 640 637 634 631 629 627 625 624 621 618 615 613 611 610 609 609 609 610 611 613 614 615 616 617 618 619 620
734 732 730 728 726 724 722 720 718 716 713 710 708 706 703 701 699 696 694 691 689 687 684 682 680 678 675 673 670 668 666 664 662 661 659 658 656 654 651 649 646 643 639 636 633 631 629 627 624 622 619 616 613 610 608 607 606 605 605 606 606 607 609 610 611 612 614 614 615
735 733 731 729 727 725 723 721 719 716 714 712 709 707 704 702 699 697 694 692 689 686 684 682 680 678 675 673 671 669 667 665 664 662 660 659 657 655 652 649 646 643 640 637 634 632 629 627 624 621 618 614 611 608 606 604 603 602 602 602 602 602 603 604 606 607 608 609 610
736 734 732 729 727 725 723 721 719 717 714 712 710 708 705 703 700 697 695 692 689 687 684 682 680 678 676 674 671 669 668 666 665 663 662 660 658 655 653 650 647 644 641 638 635 633 630 627 624 620 616 613 610 607 605 603 601 599 598 598 598 598 599 599 601 602 603 604 606
737 735 733 730 728 725 723 721 719 717 715 713 710 708 705 703 700 698 695 693 690 688 686 684 681 679 677 674 672 670 668 667 665 664 662 660 658 655 652 650 647 644 642 639 636 633 630 627 623 619 616 613 610 608 605 603 600 598 596 594 594 594 595 595 596 597 599 600 601
738 736 734 731 729 727 724 722 720 718 715 713 711 708 706 704 701 699 697 694 692 689 687 685 682 680 677 675 673 670 668 666 664 663 661 659 656 654 651 649 646 643 641 638 635 632 629 625 622 619 616 614 611 609 607 604 601 598 595 592 591 590 591 591 592 593 594 595 596
740 738 735 733 731 728 726 723 721 718 716 714 711 709 707 704 702 700 698 695 693 690 687 684 682 680 677 675 673 671 668 666 664 661 659 657 655 652 650 647 644 642 639 637 634 631 628 624 621 619 616 614 612 610 607 605 602 598 595 591 589 587 587 587 587 588 589 591 592
743 740 738 735 733 730 728 725 723 720 717 715 712 710 708 705 703 700 698 696 693 691 688 685 683 680 678 676 673 671 669 666 664 661 659 656 654 651 649 646 644 642 639 637 634 631 628 625 622 619 616 614 612 609 607 604 602 599 595 591 588 586 584 583 582 583 584 586 587
744 742 740 738 735 733 730 727 724 722 719 717 714 711 709 706 704 701 699 696 694 692 689 687 684 682 680 677 675 672 669 667 664 662 659 656 653 650 648 646 644 642 639 637 634 632 629 625 623 619 617 614 611 609 606 604 601 598 595 592 588 584 582 581 580 580 580 581 582
745 743 741 739 736 734 731 729 726 724 721 718 716 713 710 708 705 703 700 698 695 693 690 688 685 683 680 678 675 673 670 667 665 663 660 657 654 651 648 646 644 642 639 637 634 632 629 626 623 620 617 615 612 609 607 604 601 599 596 592 588 585 582 581 581 580 579 578 578
745 743 741 738 736 734 732 729 727 724 722 719 717 714 711 709 706 704 701 699 696 693 690 688 685 683 680 678 675 673 671 668 666 663 661 658 655 652 649 646 644 641 639 637 634 632 629 626 623 620 617 615 613 611 609 606 603 600 596 593 589 586 584 583 581 580 579 579 577
745 743 741 738 736 734 732 729 727 725 722 720 717 715 712 710 707 705 702 699 696 694 691 688 686 683 681 679 676 674 672 669 667 664 661 659 656 653 650 647 644 641 639 636 634 632 629 626 623 620 617 615 614 612 609 607 604 601 597 594 590 588 586 584 583 581 580 580 579
745 743 741 738 736 734 732 729 727 725 723 720 718 715 713 711 708 705 703 701 698 695 692 689 687 684 682 679 677 675 673 670 668 665 662 659 657 654 652 649 645 643 640 637 634 632 630 627 624 621 618 616 614 612 610 607 604 601 598 594 591 589 587 585 584 582 580 579 578
745 743 741 739 736 734 732 730 728 726 723 720 718 716 714 711 709 706 704 702 700 697 694 691 688 686 683 680 678 675 673 671 669 666 663 660 658 655 653 650 647 644 641 638 636 633 630 628 625 623 620 617 615 613 610 607 604 600 598 595 592 589 587 586 584 583 581 579 577
745 743 741 739 736 734 732 730 728 726 724 721 719 716 714 712 709 707 705 703 701 698 695 693 690 687 684 681 679 676 674 671 669 666 664 661 659 656 654 651 648 645 643 640 637 634 632 629 627 624 622 619 617 614 611 607 603 599 596 594 592 590 588 586 585 584 582 580 578
745 743 741 739 737 734 732 730 728 726 724 722 720 717 715 713 710 708 705 704 701 699 696 694 691 688 685 683 680 677 674 671 669 667 664 662 659 657 654 652 649 646 644 641 639 636 633 631 628 626 624 621 619 616 613 609 605 601 597 595 594 592 590 588 586 585 584 582 580
Wind_Speed
18 17 17 17 16 16 16 17 17 17 17 17 17 18 18 18 19 19 19 20 20 20 21 21 22 22 23 23 24 24 25 26 27 28 29 29 29 29 30 30 31 32 33 34 34 34 34 33 33 33 34 34 35 35 35 34 34 33 32 31 30 30 31 32 32 32 34 35 34
17 17 17 17 16 16 16 16 16 16 16 17 17 17 18 18 19 20 20 21 21 22 22 22 22 23 23 24 24 25 26 26 27 28 29 30 30 31 31 31 31 32 32 33 34 34 34 34 34 34 34 34 35 35 36 35 34 34 33 32 31 29 29 31 32 32 33 35 36
15 16 16 16 16 16 16 16 16 16 17 17 17 18 18 19 20 20 21 22 22 23 23 23 24 24 24 25 25 26 26 27 28 28 29 30 31 31 32 32 32 32 33 33 33 34 34 34 34 34 34 34 35 36 36 36 36 35 34 33 31 29 28 29 31 32 32 33 35
14 15 15 16 17 17 17 17 17 17 17 17 18 19 19 20 21 21 22 22 23 23 24 24 24 25 25 26 26 27 27 28 28 29 30 30 31 31 32 33 33 33 34 34 34 34 34 35 34 35 35 35 36 37 37 36 36 36 35 34 31 30 29 29 30 32 33 32 35
12 13 14 15 16 17 18 18 18 18 19 19 19 19 20 20 21 22 22 23 24 24 24 25 25 25 26 26 27 28 28 29 29 30 30 30 31 31 32 33 33 34 34 35 35 35 35 35 35 36 36 36 37 37 37 37 37 36 36 33 30 29 29 28 29 30 32 32 34
11 12 13 14 15 16 17 18 19 19 20 20 20 20 21 21 21 22 22 23 24 24 25 25 26 27 27 27 27 28 29 30 30 30 31 31 32 32 32 33 34 34 35 35 36 36 37 36 36 36 36 37 37 38 38 38 38 38 37 34 32 30 28 28 29 31 32 32 34
11 12 13 14 15 16 17 18 19 19 20 20 21 22 23 23 23 23 23 23 24 24 24 24 25 26 27 27 28 29 29 30 31 31 32 32 32 33 33 33 34 34 35 35 36 36 37 37 35 34 35 36 36 37 38 39 39 38 38 37 35 31 28 29 30 30 30 31 30
16 14 14 15 16 17 19 20 20 20 20 21 21 22 23 24 25 25 25 25 25 25 25 25 26 27 28 28 29 29 30 31 31 32 33 34 34 34 34 34 34 35 35 35 35 36 36 35 33 31 31 31 33 35 37 39 40 40 39 38 37 34 30 28 29 30 31 31 32
28 25 22 19 17 17 18 20 22 22 23 23 23 24 25 25 26 27 27 27 27 27 27 28 29 30 30 31 31 30 30 31 31 32 33 34 35 35 35 35 35 35 36 36 35 35 35 33 31 29 29 29 30 31 34 37 39 40 40 39 39 38 35 31 30 30 31 32 34
32 32 31 28 26 24 22 20 19 20 22 24 26 26 27 27 28 28 28 29 29 28 28 30 31 31 32 33 33 32 32 32 31 31 31 32 32 33 33 34 34 35 36 36 36 35 34 32 31 29 30 31 31 31 32 34 36 37 38 39 39 39 38 36 34 32 32 33 34
31 31 31 31 31 30 29 26 23 21 20 21 23 25 26 28 29 30 30 30 30 29 30 31 31 31 32 33 33 33 33 32 31 31 31 31 31 31 32 32 34 35 37 38 37 36 34 32 31 30 31 32 32 33 34 34 35 35 36 36 38 38 39 38 35 32 33 35 36
29 30 30 30 31 30 30 29 27 25 24 23 23 23 24 25 27 29 31 31 31 31 32 32 33 34 35 35 34 34 34 33 33 33 34 34 35 34 34 34 35 37 39 40 39 38 36 35 34 33 32 33 33 34 34 35 35 36 36 35 36 37 37 37 35 33 33 37 37
30 30 30 30 30 30 30 29 27 26 26 27 27 28 27 27 26 26 27 30 32 34 35 35 35 35 36 36 35 34 33 33 35 36 36 37 38 37 37 36 37 39 41 41 41 40 38 37 37 36 36 36 35 34 35 35 36 36 36 35 36 37 37 37 36 34 35 37 38
31 31 30 30 31 30 30 30 28 26 27 28 28 29 29 28 28 27 27 28 29 32 34 36 36 36 36 36 36 36 35 35 36 37 38 38 38 38 38 38 38 40 40 40 42 42 41 40 39 38 39 39 39 38 38 37 36 35 34 33 34 36 38 39 38 37 37 36 40
32 32 32 32 32 32 31 30 28 27 27 28 28 29 29 28 28 28 28 28 28 28 29 32 34 36 36 36 36 36 37 37 38 38 38 38 38 39 39 39 39 40 40 40 41 41 42 42 41 40 40 41 42 42 42 41 39 37 35 33 34 36 39 40 42 42 42 42 43
33 33 33 33 33 32 31 31 29 28 28 29 29 29 29 29 29 29 29 29 28 27 26 27 30 34 35 35 34 35 36 37 37 37 37 38 39 39 40 40 40 40 40 40 40 41 42 42 42 42 42 43 44 44 44 44 43 42 41 39 38 38 39 42 42 43 44 45 44
34 34 34 33 33 33 32 32 31 30 30 31 31 30 30 31 30 30 30 29 28 27 25 24 24 26 30 34 36 37 37 37 38 38 38 39 39 40 40 39 39 40 40 40 40 41 41 42 42 43 44 44 45 45 46 46 46 45 45 44 42 41 41 42 41 41 42 43 44
34 34 34 33 33 33 33 33 32 31 31 31 31 31 31 32 32 32 31 30 28 27 25 23 20 18 18 22 26 29 31 33 35 38 40 41 41 41 40 38 37 39 40 41 41 40 41 42 42 43 45 45 46 46 47 47 47 47 46 45 44 44 43 43 41 39 39 40 43
34 34 34 33 33 33 33 33 32 32 32 31 31 32 32 33 32 32 32 31 30 27 25 23 22 20 19 17 17 17 18 19 22 26 30 33 37 39 40 39 38 38 39 40 41 41 42 43 44 44 45 45 46 47 47 47 47 46 46 45 45 45 45 45 43 40 39 40 38
34 34 33 33 33 33 33 33 32 32 32 32 32 32 32 32 33 32 32 31 30 28 25 23 23 23 23 23 23 23 23 22 21 21 21 22 25 28 33 38 39 40 40 40 41 41 43 45 45 45 45 44 44 44 44 45 46 46 45 44 44 44 45 46 46 44 42 42 42
34 34 33 32 32 32 33 32 32 31 31 32 32 32 32 32 32 32 31 30 30 29 27 24 23 23 23 23 23 24 24 25 24 25 26 26 25 24 25 27 33 38 40 40 40 41 43 45 46 46 45 42 41 41 41 41 43 45 45 44 42 43 45 46 47 47 46 45 46
33 33 33 32 32 33 33 32 32 32 31 32 31 32 32 31 31 31 30 30 29 29 27 25 24 23 23 23 23 23 24 24 25 25 27 29 30 30 29 24 22 26 34 39 40 40 41 43 44 45 45 43 41 41 41 41 41 42 43 45 44 43 42 45 45 46 46 47 46
32 33 33 32 32 33 33 33 33 32 32 32 32 33 32 32 31 30 30 30 29 28 27 25 24 23 23 23 23 24 25 25 25 26 26 28 29 31 31 28 25 20 18 22 27 31 33 34 35 38 41 42 42 42 42 42 42 41 41 43 44 41 40 43 43 43 43 44 44
32 32 32 31 32 32 33 33 33 33 33 32 32 32 32 32 31 31 30 29 29 28 26 25 24 23 23 23 24 25 25 25 26 27 27 27 28 29 29 29 29 27 25 24 23 23 22 21 22 24 28 33 37 40 41 42 42 41 40 40 40 40 40 41 41 40 40 40 42
31 31 31 31 31 31 31 32 33 33 33 32 32 32 32 32 31 31 30 29 29 28 27 25 24 23 23 24 24 25 25 25 25 26 26 27 27 27 27 27 27 27 27 29 31 31 30 30 29 27 25 24 27 32 38 40 40 39 39 39 39 39 40 41 40 39 40 40 41
30 30 30 30 30 30 30 31 31 32 32 32 32 32 32 31 31 30 30 29 29 28 27 26 26 25 24 25 26 26 26 25 25 25 25 25 26 26 26 24 24 26 28 31 33 33 33 33 33 33 30 25 22 24 30 36 38 39 39 39 39 39 39 40 41 41 41 41 42
30 30 30 30 29 29 29 29 30 31 31 31 32 32 32 32 31 31 31 30 29 28 27 27 27 26 25 26 27 27 27 27 26 25 24 24 24 25 25 25 24 26 29 32 34 34 34 34 36 36 34 30 23 21 24 29 34 37 38 38 38 39 40 41 40 41 41 41 42
30 30 30 30 30 29 29 29 30 30 30 30 30 31 31 31 31 31 31 31 30 30 29 28 28 27 27 27 27 28 28 27 26 25 24 24 23 23 23 24 25 27 30 33 34 34 34 35 36 37 37 34 28 22 21 25 30 33 35 36 36 37 38 40 40 39 39 40 41
31 31 31 31 31 30 30 30 30 30 30 29 29 30 30 30 30 30 30 31 30 30 29 28 28 28 27 28 28 28 27 27 26 25 24 24 23 22 22 22 23 26 29 32 33 34 35 35 36 38 38 36 32 26 20 19 23 29 33 34 34 34 35 37 37 37 37 39 39
32 32 32 32 32 31 31 31 31 30 30 29 29 29 29 29 29 29 30 30 30 29 28 28 27 27 27 28 27 27 27 27 26 26 25 24 24 23 22 21 22 25 29 32 33 34 35 36 37 38 39 37 34 29 25 21 19 23 30 35 34 34 35 36 36 37 37 37 38
33 33 33 32 32 32 32 32 32 31 31 30 30 30 30 29 29 29 29 29 29 28 28 27 27 27 27 27 27 27 27 28 28 27 26 26 26 25 25 24 23 26 29 32 34 35 36 37 38 38 39 37 34 30 27 25 24 22 22 30 36 38 37 36 37 38 39 38 38
32 32 32 32 32 32 32 32 33 32 32 32 31 31 30 30 29 29 28 28 28 29 28 28 28 27 27 27 27 28 28 28 28 29 29 28 28 28 28 26 26 27 31 33 34 35 37 38 38 39 38 37 33 30 28 27 26 25 22 20 25 33 39 39 38 39 41 40 39
30 30 31 31 31 31 32 32 32 32 32 32 32 31 31 30 30 29 29 28 28 28 28 28 28 27 27 27 28 28 29 29 29 30 31 31 31 30 29 28 28 29 32 34 35 36 37 37 38 39 38 37 34 31 30 29 27 26 26 25 23 19 24 35 40 40 40 40 39
27 27 28 28 28 29 29 30 30 31 31 31 31 31 30 30 30 30 29 29 28 28 27 27 26 26 27 27 27 27 28 30 31 31 31 32 32 32 31 30 30 31 34 35 36 37 37 37 38 38 37 37 35 33 32 30 28 27 27 27 29 28 23 18 27 35 37 41 41
25 25 25 25 26 26 27 27 28 28 29 29 29 29 29 29 29 29 29 29 29 28 27 26 26 26 26 27 27 27 28 28 29 31 31 31 32 32 32 31 31 33 35 36 37 37 38 38 38 38 37 35 33 33 32 30 29 28 27 28 29 31 32 28 20 19 29 39 43
24 25 25 25 25 25 25 26 26 27 27 27 27 27 28 28 28 28 28 29 29 28 28 27 27 27 27 27 27 27 27 28 29 29 30 31 31 32 32 32 33 34 36 37 38 38 39 39 39 39 37 34 31 30 30 29 28 27 28 28 28 29 31 32 30 23 16 21 32
25 25 25 25 25 25 25 26 26 26 27 27 26 26 27 27 26 26 27 28 28 28 28 27 27 28 28 28 27 26 27 28 29 29 29 30 31 32 32 32 33 35 36 38 39 39 39 40 40 40 38 34 31 29 27 26 25 26 27 28 28 28 29 30 29 29 27 20 14
25 25 25 25 26 26 25 25 26 26 27 27 26 26 26 26 25 25 26 27 27 28 28 27 27 28 28 28 26 26 26 27 28 29 30 29 29 30 31 32 33 34 35 37 39 39 40 40 40 40 39 36 33 30 27 25 24 24 25 27 28 29 30 29 28 28 29 29 28
25 25 26 26 26 25 25 25 26 26 26 26 26 26 26 26 25 24 25 25 26 26 26 26 27 28 28 28 27 26 26 27 27 28 29 29 29 29 30 31 31 32 34 36 38 39 40 40 40 40 39 36 34 32 29 27 26 25 26 26 27 29 30 29 29 28 28 30 32
26 26 26 26 26 25 25 25 25 26 26 26 26 26 26 25 25 24 24 24 24 25 25 25 26 27 28 28 27 26 27 27 27 28 28 29 29 29 29 29 30 31 33 35 37 38 39 40 40 40 39 37 34 32 30 29 28 28 28 28 27 28 28 29 29 28 28 29 31
26 26 27 27 26 25 25 25 25 26 26 26 26 26 25 25 25 25 24 24 24 24 23 24 25 27 27 27 26 27 27 28 28 28 28 28 28 28 29 29 30 31 32 33 35 37 38 39 40 40 40 37 34 31 30 29 29 30 30 30 29 28 27 28 28 27 27 28 29
Wind_Direction
245 244 244 244 244 244 244 244 243 243 243 243 243 243 243 243 243 244 243 243 243 243 244 244 244 244 244 243 243 242 242 241 241 240 240 239 239 239 238 238 238 239 240 241 242 243 243 243 243 243 243 243 243 243 243 242 242 241 240 238 234 231 231 231 231 232 233 234 234
249 246 246 246 246 247 247 247 246 245 244 244 244 245 246 246 246 246 246 245 245 245 245 246 245 245 245 245 244 244 244 243 242 242 241 241 241 241 241 241 241 241 241 241 241 242 243 243 243 243 243 243 243 243 242 242 241 241 241 239 236 232 230 230 231 231 232 233 233
255 251 249 248 247 247 248 249 248 247 246 246 245 246 246 247 247 248 248 247 247 247 247 247 247 246 246 246 245 245 245 244 244 243 243 243 243 243 243 243 243 243 242 242 241 241 241 242 242 242 243 243 242 242 241 241 240 241 241 241 238 234 230 229 229 230 230 231 232
260 255 252 250 249 249 249 250 251 251 251 250 250 249 248 248 248 249 250 250 250 249 249 249 248 247 246 246 245 245 245 245 244 244 244 244 243 243 243 244 244 244 244 243 242 241 241 240 241 242 242 242 242 241 241 240 239 239 240 241 240 237 233 229 228 230 230 230 231
262 257 254 253 253 252 252 253 255 256 256 256 256 254 252 251 250 250 251 251 251 251 251 250 250 248 247 246 246 246 246 246 245 245 245 245 244 244 244 244 244 244 244 244 244 243 241 240 240 241 241 241 241 241 240 240 239 239 239 240 239 237 234 229 227 226 227 227 229
263 261 257 257 258 259 259 259 259 260 260 261 260 259 258 256 254 253 253 253 253 253 253 252 251 250 249 248 247 247 247 246 246 245 245 245 245 245 245 245 245 244 244 244 244 243 242 240 240 239 239 240 240 240 240 239 239 239 239 239 239 237 234 231 227 225 224 224 226
285 275 268 265 264 264 264 265 265 265 265 265 263 262 261 261 260 259 258 258 258 257 256 254 252 251 250 249 248 248 247 247 246 245 245 246 246 246 246 246 246 245 244 243 243 243 242 241 239 239 239 238 239 239 238 237 237 237 237 237 237 236 235 233 229 225 222 221 222
341 324 306 290 278 271 267 267 267 267 267 267 265 264 264 264 264 264 264 263 262 261 259 257 255 254 253 251 250 249 248 247 247 246 246 246 247 247 247 247 247 247 245 244 242 242 241 240 239 239 239 239 238 238 237 235 234 234 235 235 236 235 234 233 231 227 224 221 220
7 1 352 340 324 307 292 281 273 267 265 264 264 264 265 265 266 266 265 265 264 262 261 259 258 257 256 254 252 251 249 249 248 248 247 247 247 247 247 248 248 248 247 245 243 241 241 240 238 237 237 238 239 239 237 235 233 232 232 233 234 235 235 233 232 231 228 225 222
11 10 8 5 360 353 342 326 306 289 278 271 267 266 265 265 265 265 264 264 263 262 260 259 258 258 258 257 255 254 252 251 250 250 249 249 248 248 248 248 248 249 248 247 245 243 241 240 239 237 236 237 239 241 241 238 234 231 229 230 232 233 234 233 233 232 231 230 225
9 8 8 7 6 5 3 359 351 338 321 303 291 282 276 271 267 265 263 263 262 261 259 258 257 257 257 256 256 255 254 253 252 252 251 250 250 250 249 249 249 250 250 248 246 244 243 241 240 237 236 236 239 242 244 242 239 234 229 227 228 230 231 232 230 230 231 232 229
7 7 7 6 5 5 4 4 1 357 351 342 332 321 309 297 286 277 272 267 263 261 259 258 257 257 256 255 255 254 253 253 253 253 253 252 252 251 251 250 249 250 250 249 246 244 243 242 242 240 239 238 239 241 243 243 242 238 234 228 226 227 229 230 229 228 230 232 230
6 6 6 5 5 4 3 2 359 356 353 350 347 343 337 330 320 309 297 284 275 267 262 260 258 256 256 255 254 253 252 252 252 253 253 253 252 252 251 249 249 249 249 248 246 244 242 242 242 243 243 242 242 242 243 244 244 242 239 235 232 232 233 233 231 229 231 233 232
5 5 4 3 3 3 2 1 358 354 351 349 346 344 342 339 336 331 323 312 298 285 274 266 260 257 256 255 253 252 252 252 252 252 252 252 252 251 250 248 247 247 247 248 245 243 241 241 242 242 243 244 244 244 245 245 246 245 242 238 237 237 238 237 235 232 232 233 233
4 4 3 3 2 2 1 359 356 353 351 348 346 344 343 340 339 337 334 328 320 309 294 279 268 262 257 255 252 251 251 251 251 252 252 252 251 250 248 246 245 244 245 246 245 243 241 240 241 242 243 244 245 245 246 246 246 245 243 240 239 239 240 239 237 233 232 233 234
4 3 3 2 2 1 359 357 355 352 350 348 347 346 346 344 342 340 338 335 332 327 317 301 284 271 263 258 254 253 252 252 252 252 252 252 251 249 247 244 242 241 242 243 243 242 240 239 240 241 243 244 245 245 245 245 245 244 243 240 238 237 237 238 235 232 230 231 233
2 2 1 1 0 359 358 356 354 352 350 349 348 348 348 347 346 344 342 340 338 337 334 327 311 291 276 268 264 262 260 260 259 257 256 256 256 255 252 246 241 239 239 240 240 239 239 239 239 240 241 242 243 243 244 244 243 242 241 240 238 237 236 237 235 232 229 228 230
0 359 359 359 358 358 356 354 353 352 351 349 349 349 349 350 349 347 346 345 344 343 345 347 346 336 315 295 284 278 276 273 270 267 265 263 262 262 260 255 247 241 239 238 237 237 237 237 238 239 240 240 240 241 241 241 240 240 239 238 237 236 236 237 237 235 231 229 229
358 357 356 356 356 355 354 353 352 352 351 350 349 349 350 351 351 350 349 348 347 346 348 354 5 13 14 6 353 341 329 316 303 292 283 277 271 266 262 258 254 247 242 239 237 236 237 238 238 238 238 238 238 238 238 237 237 237 236 236 236 235 236 237 237 237 235 233 232
356 354 353 353 353 353 352 352 351 350 350 350 350 350 351 352 353 353 351 349 348 348 348 353 2 13 20 22 21 18 13 7 357 346 334 320 302 286 273 264 257 252 246 241 238 237 237 239 239 238 238 237 237 236 236 235 234 233 233 233 234 235 235 236 237 236 235 234 234
354 353 351 350 350 350 350 349 349 350 350 351 351 351 351 352 352 352 351 350 349 349 349 350 356 4 12 17 18 16 14 12 9 5 2 357 349 334 314 291 270 258 250 245 241 238 238 238 239 239 239 240 240 239 238 236 234 231 230 231 232 233 234 234 234 233 232 232 232
352 351 350 350 349 349 349 349 349 349 350 350 350 351 351 351 351 351 351 352 352 350 348 348 351 357 5 11 14 14 13 12 10 7 6 4 2 358 352 339 312 280 262 253 248 246 244 243 243 242 242 242 243 243 243 241 237 232 228 229 231 233 233 232 230 229 228 229 230
350 350 350 349 349 349 349 349 349 349 349 350 350 350 350 350 350 351 351 352 352 351 348 347 348 351 358 5 9 12 12 11 9 8 6 6 4 3 2 3 1 349 320 290 276 271 268 264 260 256 252 248 245 243 241 240 238 233 228 226 229 231 233 233 232 229 227 227 229
350 349 349 349 349 349 349 349 349 349 349 349 349 348 348 349 349 350 350 351 351 350 349 348 347 349 353 360 5 9 10 10 9 7 6 6 6 5 4 6 10 13 13 6 357 348 339 329 316 300 282 267 255 246 240 237 235 231 226 225 226 228 230 232 233 232 230 228 229
349 349 349 349 349 349 349 349 349 348 348 347 347 347 348 348 348 349 349 349 350 351 350 349 349 350 353 358 2 6 8 8 7 6 4 3 3 3 3 2 2 3 4 3 1 359 357 355 351 343 329 304 277 257 245 238 233 228 225 224 225 227 230 232 232 232 232 230 230
349 349 349 349 348 349 349 349 348 348 347 346 347 347 347 347 347 347 348 348 349 350 350 352 352 353 355 357 0 3 5 6 5 4 1 359 358 358 358 357 356 356 357 357 356 356 355 354 353 351 345 331 304 275 254 243 236 231 227 225 225 226 228 230 231 231 230 229 229
350 350 349 348 348 349 349 348 348 347 347 346 346 346 346 346 346 347 348 348 348 349 350 352 353 354 355 357 360 2 3 3 3 1 359 357 354 354 354 354 354 355 356 357 358 357 356 354 354 354 352 344 326 295 267 249 239 234 231 228 226 225 226 228 228 228 228 227 227
351 350 349 348 348 348 348 348 348 347 347 346 346 345 345 346 346 347 348 348 348 349 351 352 352 353 354 356 359 360 1 1 0 359 357 355 352 351 351 352 353 355 356 358 358 357 356 354 354 355 355 352 342 320 287 261 245 237 234 232 229 226 224 225 226 226 226 226 226
351 350 349 349 348 348 348 348 348 347 346 346 345 345 346 346 347 348 348 348 348 349 350 350 350 351 353 354 356 357 358 358 357 356 354 352 350 349 349 350 351 353 356 357 358 358 357 356 355 356 357 358 354 343 321 288 258 243 237 233 230 226 224 224 225 225 225 226 226
351 351 350 349 348 348 348 348 347 346 345 345 345 346 347 347 348 348 349 348 347 347 347 348 349 350 351 352 352 353 354 355 355 354 352 351 349 349 348 349 351 353 355 357 357 358 358 358 357 357 358 360 359 355 346 330 300 266 247 237 230 227 226 226 226 226 227 227 226
351 350 349 349 348 348 347 347 346 346 345 345 346 346 347 348 348 349 348 347 346 345 346 347 348 349 349 350 350 351 351 352 353 352 352 351 350 350 350 351 352 354 355 356 357 358 359 359 359 358 359 359 359 356 351 344 335 314 280 252 240 232 228 228 228 228 228 226 225
349 348 348 347 347 346 346 345 345 345 345 346 346 346 346 347 347 347 347 346 345 345 346 346 347 348 348 349 349 350 351 351 351 351 351 351 351 351 351 352 353 354 355 356 357 359 360 360 360 359 358 358 357 355 351 347 344 341 333 309 270 246 235 230 228 228 227 226 223
346 346 346 345 345 344 344 344 344 344 345 345 345 346 345 345 345 345 346 346 346 345 345 345 346 347 347 347 347 347 349 351 351 351 351 351 351 351 352 353 354 354 355 356 357 359 360 0 360 359 358 358 357 354 352 349 346 345 347 347 338 307 263 241 232 228 226 224 222
342 342 342 342 342 342 342 342 343 343 343 343 344 344 344 344 344 344 345 346 345 344 344 344 345 346 347 347 345 345 347 349 351 351 351 351 351 351 352 353 353 353 354 356 357 358 359 0 0 360 359 358 357 355 352 349 347 345 346 349 354 354 341 296 250 234 226 223 221
339 338 338 338 338 339 339 340 340 341 341 341 342 343 344 344 344 344 344 344 344 343 343 343 344 345 346 347 346 346 346 346 348 350 351 351 351 351 351 351 351 353 354 355 357 358 359 360 0 0 360 359 357 355 353 350 347 345 345 347 352 357 359 354 327 271 238 225 220
338 338 337 337 337 337 338 339 339 339 339 340 340 342 343 343 344 344 344 344 343 343 343 343 344 345 346 347 347 347 347 346 347 347 349 350 351 351 351 350 350 352 353 355 356 357 358 359 360 0 360 359 357 355 353 350 347 346 346 347 350 353 355 357 356 344 305 247 225
340 339 339 338 338 338 339 339 340 339 339 339 340 341 342 342 342 344 345 345 344 344 343 344 344 345 346 346 346 347 347 348 347 347 347 348 350 351 351 350 350 351 352 354 355 356 358 359 360 0 360 358 356 354 352 350 348 347 347 348 349 350 351 352 353 353 349 336 290
341 341 341 340 340 340 340 341 341 341 340 339 340 341 342 341 342 343 345 346 346 344 343 343 344 345 345 345 345 345 347 348 349 348 347 347 348 349 350 350 350 350 351 352 354 355 357 358 359 0 360 358 355 352 350 348 348 348 349 349 348 348 348 348 348 347 348 348 345
343 343 342 342 341 341 341 342 342 341 340 339 340 341 342 342 341 342 344 346 346 345 344 343 344 344 344 344 344 345 347 348 349 349 348 347 347 347 348 349 349 350 350 352 353 354 355 357 358 360 360 358 356 353 350 348 348 349 350 350 348 347 346 346 345 343 342 343 346
344 344 344 344 343 342 342 343 343 342 341 340 340 341 341 341 340 341 342 344 345 345 345 344 344 344 344 345 345 345 346 347 349 349 349 348 348 348 348 348 348 348 350 351 352 353 354 355 357 359 359 358 356 354 351 350 349 349 350 350 349 346 343 342 342 341 340 340 341
345 345 345 345 345 344 343 343 343 342 342 341 341 340 340 340 340 341 342 344 345 345 345 345 344 345 346 346 346 346 346 347 348 349 349 349 349 350 350 348 347 347 348 350 351 352 353 354 356 357 358 357 355 354 353 352 351 350 349 348 347 344 341 339 339 339 338 338 338